www.pogodaiklimat.ru

Погода и климат >> Архив погоды >> Пакистан >> Мултан


ПОГОДА в Мултане

  • Прогноз погоды в Мултане
  • Монитор погоды в Мултане

АРХИВ ПОГОДЫ в Мултане

Время (UTC), дата Ветер
(напр.,м/с)
 
Видим.   Явления Облачность Т
(С)
Тd
(С)
f
(%)
Тe
(С)
Тes
(С)
Комфортность P
(гПа)
Po
(гПа)
Тmin
(С)
Tmax
(С)
R
(мм)
R24
(мм)
S
(см)
06 9.09 Ю 3 4000 м дым ясно +37.0 +25.3 51 +51 +64 опасность
перегрева
1001.4 987.2
09 9.09 ЮЗ 2 4000 м мгла 4/4 1200 м
[Sc diur, vesp]
+39.5 +25.0 44 +52 +61 опасность
перегрева
999.6 1000.0
12 9.09 ЮЗ 4 4000 м мгла 1/1 1200 м
[Sc diur, vesp]
+39.0 +25.2 46 +52 +54 опасность
перегрева
997.8 983.6 +40.0
15 9.09 Ю 1 4000 м дым ясно +36.0 +25.6 55 +51 +51 опасность
перегрева
998.0 1000.0
18 9.09 штиль 0 4000 м дым ясно +34.0 +27.2 68 +53 +53 опасность
перегрева
998.9 984.7
21 9.09 штиль 0 4000 м дым ясно +34.0 +27.2 68 +53 +53 опасность
перегрева
998.9 984.7
00 10.09 Ю 3 4000 м дым ясно +32.0 +25.0 67 +46 +46 опасность
перегрева
998.0 983.8
03 10.09 Ю 2 4000 м дым ясно +32.0 +25.0 67 +46 +49 опасность
перегрева
999.5 985.3 +31.3
06 10.09 ЮВ 3 4000 м дым ясно +36.0 +24.9 53 +49 +62 опасность
перегрева
999.8 985.6
09 10.09 Ю 3 4000 м мгла ясно +39.5 +25.0 44 +52 +64 опасность
перегрева
998.2 984.9
12 10.09 Ю 3 4000 м мгла ясно +39.0 +25.2 46 +52 +54 опасность
перегрева
997.5 983.4 +41.1
15 10.09 Ю 1 4000 м дым ясно +36.0 +25.6 55 +51 +51 опасность
перегрева
997.8 1000.0
18 10.09 Ю 2 4000 м дым ясно +33.5 +26.6 67 +50 +50 опасность
перегрева
998.6 984.4
21 10.09 Ю 1 4000 м дым ясно +32.5 +26.3 70 +49 +49 опасность
перегрева
998.4 1000.0
00 11.09 ЮВ 3 4000 м дым ясно +30.5 +24.9 72 +44 +44 опасность
перегрева
998.6 984.4
03 11.09 Ю 2 4000 м дым ясно +31.0 +24.6 69 +44 +48 опасность
перегрева
1000.0 985.8 +30.1
06 11.09 С 3 4000 м дым ясно +35.5 +24.3 52 +47 +60 опасность
перегрева
1001.5 987.3
09 11.09 СВ 2 4000 м мгла ясно +38.5 +23.8 43 +49 +64 опасность
перегрева
999.9 1000.0
12 11.09 СВ 2 4000 м мгла ясно +40.0 +19.3 30 +44 +46 опасность
перегрева
998.7 984.5 +40.1
15 11.09 Ю 1 4000 м дым ясно +36.0 +25.6 55 +51 +51 опасность
перегрева
999.6 1000.0
18 11.09 штиль 0 4000 м дым ясно +35.0 +26.8 63 +53 +53 опасность
перегрева
1000.7 986.5
21 11.09 Ю 2 4000 м дым ясно +33.0 +26.1 67 +49 +49 опасность
перегрева
1000.2 1000.0
00 12.09 штиль 0 4000 м дым ясно +31.0 +26.0 75 +46 +46 опасность
перегрева
999.8 985.6
03 12.09 ЮЗ 2 4000 м дым ясно +30.0 +22.8 65 +40 +43 очень
душно
1001.1 986.9 +29.3
06 12.09 штиль 0 4000 м дым ясно +36.0 +24.0 50 +47 +69 опасность
перегрева
1002.4 988.2
09 12.09 штиль 0 4000 м ясно +39.5 +24.2 42 +51 +70 опасность
перегрева
1050.0 1000.0
12 12.09 Ю 4 4000 м мгла ясно +39.0 +23.5 41 +49 +50 опасность
перегрева
999.1 985.9 +40.5
15 12.09 штиль 0 4000 м дым 1/0
[Ac trans]
+36.5 +24.6 51 +49 +49 опасность
перегрева
1000.5 1000.0
18 12.09 Ю 2 4000 м дым ясно +33.5 +26.6 67 +50 +50 опасность
перегрева
1001.2 987.0
21 12.09 Ю 2 4000 м дым ясно +32.0 +25.0 67 +46 +46 опасность
перегрева
1000.9 1000.0
00 13.09 Ю 4 4000 м дым ясно +29.0 +23.2 71 +39 +39 очень
душно
1001.2 987.0
03 13.09 Ю 3 2000 м дым ясно +28.5 +24.2 78 +40 +43 очень
душно
1002.9 988.7 +27.7
06 13.09 штиль 0 4000 м дым ясно +34.5 +23.9 54 +46 +67 опасность
перегрева
1004.1 989.9
09 13.09 Ю 1 4000 м мгла 3/0
[Ci fib]
+39.0 +22.7 39 +48 +63 опасность
перегрева
1002.0 1000.0
12 13.09 Ю 3 4000 м мгла 3/0
[Ac trans]
+38.5 +22.9 41 +48 +49 опасность
перегрева
1000.6 986.4 +39.5
15 13.09 Ю 1 4000 м дым 3/0
[Ac trans]
+34.5 +25.5 60 +49 +49 опасность
перегрева
1001.8 1000.0
18 13.09 Ю 1 4000 м дым ясно +31.5 +26.0 73 +47 +47 опасность
перегрева
1002.7 988.5
21 13.09 штиль 0 4000 м дым ясно +30.5 +25.6 75 +45 +45 опасность
перегрева
1002.6 1000.0
00 14.09 штиль 0 4000 м дым ясно +29.5 +25.3 78 +43 +43 опасность
перегрева
1002.0 987.8
03 14.09 штиль 0 4000 м дым ясно +30.5 +25.6 75 +45 +50 опасность
перегрева
1004.1 989.9 +28.3
06 14.09 Ю 2 4000 м дым 3/0
[Ac trans]
+35.5 +24.3 52 +47 +60 опасность
перегрева
1005.2 991.0
09 14.09 Ю 2 4000 м мгла ясно +38.0 +23.1 43 +48 +63 опасность
перегрева
1003.1 1000.0
12 14.09 Ю 3 4000 м мгла ясно +38.0 +24.0 45 +49 +51 опасность
перегрева
1002.1 987.9 +39.0
15 14.09 Ю 1 4000 м дым ясно +35.0 +24.5 55 +48 +48 опасность
перегрева
1002.7 1000.0
18 14.09 штиль 0 4000 м дым ясно +33.0 +26.3 68 +49 +49 опасность
перегрева
1004.1 989.9
21 14.09 штиль 0 4000 м дым ясно +32.0 +25.0 67 +46 +46 опасность
перегрева
1003.0 1000.0
00 15.09 штиль 0 4000 м дым ясно +31.5 +25.2 69 +45 +45 опасность
перегрева
1003.5 989.3
03 15.09 штиль 0 4000 м дым 3/0
[Ci fib]
+31.5 +26.0 73 +47 +52 опасность
перегрева
1004.7 990.5 +30.3
06 15.09 Ю 3 4000 м дым 3/0
[Ci fib]
+34.5 +26.3 62 +51 +62 опасность
перегрева
1005.8 991.6
09 15.09 Ю 2 4000 м дым 3/0
[Ci fib]
+38.0 +25.6 49 +52 +65 опасность
перегрева
1003.7 990.2
12 15.09 Ю 2 4000 м мгла ясно +38.0 +24.8 47 +51 +52 опасность
перегрева
1001.8 987.6 +39.3
15 15.09 штиль 0 4000 м дым ясно +35.0 +24.5 55 +48 +48 опасность
перегрева
1002.5 1000.0
18 15.09 Ю 2 4000 м дым ясно +33.0 +24.6 61 +46 +46 опасность
перегрева
1003.7 989.5
21 15.09 Ю 2 4000 м дым ясно +31.5 +24.4 66 +44 +44 опасность
перегрева
1001.3 1000.0
00 16.09 ЮВ 2 4000 м дым ясно +31.0 +24.6 69 +44 +44 опасность
перегрева
1001.1 986.9
03 16.09 Ю 2 4000 м дым ясно +31.0 +24.6 69 +44 +47 опасность
перегрева
1002.7 988.5 +29.9

 

Местоположение метеостанции Мултан (Пакистан): широта 30.20 долгота 71.43 высота над уровнем моря 123 м.

В архиве по умолчанию представлена погода в Мултане за последнюю неделю. Архивные данные за месяц целиком и за предыдущие месяцы, начиная с января 2011 года, Вы можете получить, выбрав интересующий диапазон дат из раскрывающегося списка и нажав кнопку "Ввод!".


*Определитесь, кто Вы:
робот инопланетянин человек

Внимание! Время в таблицах - всемирное. Для получения местного времени необходимо прибавить поправку, которая равна 5 ч.

Смотрите также архив погоды в соседних городах и на ближайших метеорологических станциях:

Погода в Ханевале (Пакистан) (47 км)
Погода в Кот Адду (Пакистан) (54 км)
Погода в Дера Гази Хан (Пакистан) (79 км)
Погода в Бахавалпуре (Пакистан) (95 км)
Погода а Бахавалпур аэропорту (Пакистан) (95 км)
Погода на Авиабазе Raifiqui (Пакистан) (98 км)
Погода в Леяхе (Пакистан) (101 км)
Погода в Тоба Тек Сингх (Пакистан) (132 км)
Погода в Джанге (Пакистан) (146 км)
Погода в Сахивале (Пакистан) (161 км)

Пояснения к столбцам:

Ветер - указаны скорость ветра в м/с - средняя за 10 мин, порывы в срок и между сроками (в фигурных скобках) и направление, откуда дует ветер: С - северный, СВ - северо-восточный, В - восточный, ЮВ - юго-восточный, Ю - южный, ЮЗ - юго-западный, З - западный, СЗ - северо-западный.
Видимость - горизонтальная дальность видимости в метрах или километрах. При видимости от 1 до 10 км при отсутствии осадков обычно наблюдается дымка, при ухудшении видимости до 1 км и менее - туман. В сухую погоду видимость может ухудшаться дымом, пылью или мглою.
Явления - указаны атмосферные явления, наблюдавшиеся в срок или в последний час перед сроком; фигурными скобками обозначены явления, наблюдавшиеся между сроками (за 1-3 часа до срока); квадратными скобками обозначены град или гололедные отложения с указанием их диаметра в мм.
Облачность - указаны через наклонную черту общая и нижняя облачность в баллах и высота нижней границы облаков в метрах; квадратными скобками обозначены формы облаков: Ci - перистые, Cs - перисто-слоистые, Cc - перисто-кучевые, Ac - высококучевые, As - высокослоистые, Sc - слоисто-кучевые, Ns - слоисто-дождевые, Cu - кучевые, Cb - кучево-дождевые. Подробнее классификацию облаков см. в Атласе облаков (PDF).
T - Температура воздуха - температура, измеренная на высоте 2 м над землей.
Td - Температура точки росы - температура, при понижении до которой содержащийся в воздухе водяной пар достигнет насыщения.
f - Относительная влажность воздуха - влажноcть воздуха, измеренная на высоте 2 м над землей.
Te - Эффективная температура - температура, которую ощущает одетый по сезону человек в тени. Характеристика душности погоды. При расчете учитывается влияние влажности воздуха и скорости ветра на теплоощущения человека.
Tes - Эффективная температура на солнце - температура, которую ощущает человек, с поправкой на солнечный нагрев. Характеристика знойности погоды. Зависит от высоты солнца над горизонтом, облачности и скорости ветра. Ночью, в пасмурную погоду, а также при ветре 12 м/с и более поправка равна нулю.
P - Атмосферное давление - приведенное к уровню моря атмосферное давление.
Po - Атмосферное давление - измеренное на уровне метеостанции атмосферное давление.
Tmin - Минимальная температура - минимум температуры воздуха на высоте 2 м над землей.
Tmax - Максимальная температура - максимум температуры воздуха на высоте 2 м над землей.
R - Количество осадков - Количество выпавших осадков за период времени, мм. При наведении курсора мыши на число - период времени, за который выпало указанное количество осадков.
R24 - Количество осадков - Количество выпавших осадков за 24 часа, мм.
S - Снежный покров - Высота снежного покрова, см. При наведении курсора мыши на число - состояние снежного покрова и степень покрытия местности в баллах.